Flag for Canada Weather past 2 weeks in Chatham-Kent, Ontario, Canada

Now
63 °F

Mild.


Feels Like: 63 °F
Forecast: 62 / 71 °F
Wind: 3 mph from West

Location: Erieau

Current Time: Jul 30, 2014 at 5:27:08 AM

Latest Report: Jul 30, 2014 at 5:00 AM


Visibility: N/A

Pressure: 29.93 "Hg

Humidity: 77%

Dew point: 56 °F

Location of Chatham-KentLocation

Historic Weather in Chatham-Kent — Graph

°F

Chatham-Kent temperature yesterday

Maximum temperature yesterday: 68 °F (at 1:00 PM)
Minimum temperature yesterday: 56 °F (at 7:00 AM)
Average temperature yesterday: 63 °F

Past Weeks' High & Low Weather Summary

 TemperatureHumidityPressure
High79 °F (Jul 22, 12:00 PM)100% (Jul 21, 4:00 AM)30.23 "Hg (Jul 21, 4:00 AM)
Low56 °F (Jul 29, 7:00 AM)38% (Jul 17, 1:00 PM)29.60 "Hg (Jul 27, 5:00 PM)
Average67 °F75%29.97 "Hg
* Reported Jul 15 4:00 AM — Jul 30 4:00 AM, Chatham-Kent, Weather by CustomWeather, © 2014

Note: Actual official high and low records may vary slightly from our data, if they occured in-between our weather recording intervals... More about our weather records

Advertising

Chatham-Kent weather history for previous 24 hours

 ConditionsComfort  
Time TempWeatherWind HumidityBarometerVisibility
4:00 AM
Jul 30
63 °FMild.5 mph80%29.93 "HgN/A
3:00 AM63 °FMild.6 mph84%29.93 "HgN/A
2:00 AM65 °FMild.8 mph74%29.94 "HgN/A
1:00 AM66 °FMild.7 mph72%29.95 "HgN/A
12:00 AM66 °FMild.13 mph78%29.94 "HgN/A
11:00 PM
Jul 29
65 °FMild.6 mph81%29.95 "HgN/A
10:00 PM67 °FMild.8 mph70%29.96 "HgN/A
9:00 PM67 °FMild.9 mph73%29.95 "HgN/A
8:00 PM67 °FMild.5 mph72%29.95 "HgN/A
7:00 PM67 °FMild.12 mph71%29.96 "HgN/A
6:00 PM67 °FMild.12 mph70%29.96 "HgN/A
5:00 PM66 °FMild.13 mph70%29.96 "HgN/A
4:00 PM66 °FMild.13 mph67%29.96 "HgN/A
3:00 PM66 °FMild.12 mph65%29.97 "HgN/A
2:00 PM67 °FMild.10 mph61%29.98 "HgN/A
1:00 PM68 °FMild.5 mph60%29.98 "HgN/A
12:00 PM66 °FMild.5 mph64%29.99 "HgN/A
11:00 AM65 °FMild.6 mph67%29.99 "HgN/A
10:00 AM62 °FCool.8 mph71%29.99 "HgN/A
9:00 AM62 °FCool.5 mph67%29.98 "HgN/A
8:00 AM59 °FCool.5 mph71%29.97 "HgN/A
7:00 AM56 °FCool.3 mph76%29.96 "HgN/A
6:00 AM57 °FCool.5 mph75%29.95 "HgN/A
5:00 AM56 °FCool.5 mph77%29.95 "HgN/A
Weather by CustomWeather, © 2014

See weather overviewHow to use our weather pages